Weather History for Sitka, AK

Change the Weather History Date:

Thursday, September 11, 2014

  Actual Average Record
Temperature  
Mean Temperature 55 °F -  
Max Temperature 57 °F 58 °F 66 °F (2013)
Min Temperature 53 °F 48 °F 39 °F (1970)
Degree Days  
Heating Degree Days 10    
Growing Degree Days 5 (Base 50)    
Moisture  
Dew Point 54 °F    
Average Humidity 97    
Maximum Humidity 100    
Minimum Humidity 90    
Precipitation  
Precipitation 0.28 in - - ()
Sea Level Pressure  
Sea Level Pressure 30.27 in    
Wind  
Wind Speed 5 mph (SW)    
Max Wind Speed 10 mph    
Max Gust Speed -    
Visibility 6 miles    
Events Rain    
Averages and records for this station are not official NWS values.
T = Trace of Precipitation, MM = Missing Value Source: NWS Daily Summary

Daily Weather History Graph

Daily Weather History Graph

Search for Another Location

Airport:

Trip Planner

Search our weather history database for the weather conditions in past years. The results will help you decide how hot, cold, wet, or windy it might be!

Date:

Astronomy

Sep. 11, 2014 Rise Set
Actual Time 6:24 AM AKDT 7:30 PM AKDT
Civil Twilight 5:45 AM AKDT 8:09 PM AKDT
Nautical Twilight 4:57 AM AKDT 8:57 PM AKDT
Astronomical Twilight 4:03 AM AKDT 9:50 PM AKDT
Moon 8:27 PM AKDT (9/11) 10:12 AM AKDT (9/11)
Length of Visible Light 14h 24m
Length of Day
13h 05m
Waning Gibbous, 89% of the Moon is Illuminated
Sep 11
Waning Gibbous
Sep 15
Last Quarter
Sep 23
New
Oct 1
First Quarter
Oct 8
Full

Hourly Weather History & Observations

Time (AKDT) Temp. Dew Point Humidity Pressure Visibility Wind Dir Wind Speed Gust Speed Precip Events Conditions
12:53 AM 54.0 °F 51.1 °F 90% 30.20 in 8.0 mi ESE 8.1 mph - 0.00 in Rain Light Rain
1:53 AM 53.1 °F 51.1 °F 93% 30.20 in 3.0 mi ESE 9.2 mph - 0.03 in Rain Light Rain
2:44 AM 53.1 °F 51.1 °F 93% 30.20 in 2.5 mi ESE 8.1 mph - 0.04 in Rain Light Rain
2:53 AM 53.1 °F 52.0 °F 96% 30.20 in 3.0 mi ESE 6.9 mph - 0.05 in Rain Light Rain
3:15 AM 53.1 °F 52.0 °F 96% 30.20 in 2.5 mi East 4.6 mph - 0.03 in Rain Light Rain
3:26 AM 53.1 °F 52.0 °F 96% 30.20 in 5.0 mi Calm Calm - 0.04 in Rain Light Rain
3:53 AM 54.0 °F 52.0 °F 93% 30.21 in 4.0 mi Calm Calm - 0.05 in Rain Light Rain
4:45 AM 54.0 °F 53.1 °F 97% 30.21 in 2.5 mi NNW 3.5 mph - 0.01 in Rain Light Rain
4:53 AM 54.0 °F 54.0 °F 100% 30.22 in 2.0 mi Calm Calm - 0.02 in Rain Light Rain
5:04 AM 54.0 °F 54.0 °F 100% 30.21 in 2.5 mi Calm Calm - 0.01 in Rain Light Rain
5:14 AM 54.0 °F 54.0 °F 100% 30.21 in 4.0 mi Calm Calm - 0.01 in Rain Light Rain
5:27 AM 54.0 °F 53.1 °F 97% 30.22 in 2.5 mi NW 3.5 mph - 0.02 in Rain Light Rain
5:53 AM 54.0 °F 53.1 °F 97% 30.22 in 3.0 mi North 6.9 mph - 0.05 in Rain Light Rain
6:07 AM 54.0 °F 54.0 °F 100% 30.22 in 2.5 mi NNW 3.5 mph - 0.01 in Rain Light Rain
6:17 AM 54.0 °F 54.0 °F 100% 30.23 in 4.0 mi NNW 6.9 mph - 0.02 in Rain Light Rain
6:42 AM 54.0 °F 54.0 °F 100% 30.23 in 2.0 mi NNW 4.6 mph - 0.03 in Rain Light Rain
6:53 AM 54.0 °F 54.0 °F 100% 30.23 in 2.0 mi Calm Calm - 0.04 in Rain Light Rain
7:06 AM 54.0 °F 54.0 °F 100% 30.23 in 1.8 mi North 4.6 mph - 0.01 in Rain Light Rain
7:12 AM 54.0 °F 54.0 °F 100% 30.23 in 3.0 mi North 3.5 mph - 0.01 in Rain Light Rain
7:53 AM 55.0 °F 55.0 °F 100% 30.25 in 3.0 mi ENE 3.5 mph - 0.01 in   Overcast
8:37 AM 54.0 °F 54.0 °F 100% 30.25 in 2.0 mi Calm Calm - 0.01 in Rain Light Rain
8:53 AM 55.0 °F 54.0 °F 96% 30.25 in 2.0 mi Calm Calm - 0.01 in Rain Light Rain
9:17 AM 55.0 °F 54.0 °F 96% 30.25 in 4.0 mi Calm Calm - 0.01 in Rain Light Rain
9:53 AM 55.0 °F 55.0 °F 100% 30.26 in 3.0 mi North 3.5 mph - 0.01 in   Overcast
10:35 AM 55.0 °F 55.0 °F 100% 30.27 in 2.5 mi SSW 8.1 mph - 0.01 in   Overcast
10:39 AM 55.0 °F 54.0 °F 96% 30.27 in 3.0 mi SSW 6.9 mph - 0.01 in   Overcast
10:53 AM 55.0 °F 55.0 °F 100% 30.28 in 5.0 mi SSW 8.1 mph - 0.01 in   Overcast
11:53 AM 55.0 °F 55.0 °F 100% 30.29 in 4.0 mi SSW 8.1 mph - N/A   Overcast
12:53 PM 55.0 °F 55.0 °F 100% 30.30 in 10.0 mi SSW 6.9 mph - N/A   Overcast
1:05 PM 55.9 °F 55.0 °F 97% 30.29 in 6.0 mi SW 10.4 mph - N/A   Overcast
1:12 PM 55.9 °F 55.0 °F 97% 30.30 in 6.0 mi SSW 9.2 mph - N/A   Overcast
1:53 PM 55.9 °F 55.0 °F 97% 30.30 in 6.0 mi SSW 9.2 mph - N/A   Overcast
2:22 PM 57.0 °F 55.0 °F 93% 30.30 in 10.0 mi SSW 10.4 mph - N/A   Overcast
2:53 PM 55.9 °F 54.0 °F 93% 30.31 in 10.0 mi SSW 9.2 mph - N/A   Overcast
3:53 PM 57.0 °F 55.0 °F 93% 30.32 in 10.0 mi South 5.8 mph - 0.00 in   Mostly Cloudy
4:53 PM 57.0 °F 55.0 °F 93% 30.32 in 10.0 mi SW 9.2 mph - N/A   Overcast
5:00 PM 55.9 °F 54.0 °F 93% 30.31 in 10.0 mi SW 8.1 mph - N/A   Overcast
5:53 PM 55.9 °F 54.0 °F 93% 30.32 in 10.0 mi SW 9.2 mph - N/A   Overcast
6:53 PM 55.9 °F 54.0 °F 93% 30.32 in 10.0 mi SW 6.9 mph - N/A   Overcast
7:53 PM 55.0 °F 54.0 °F 96% 30.33 in 10.0 mi SSW 4.6 mph - N/A   Overcast
8:53 PM 55.0 °F 54.0 °F 96% 30.33 in 10.0 mi SW 3.5 mph - N/A   Overcast
9:53 PM 55.0 °F 54.0 °F 96% 30.34 in 10.0 mi SW 3.5 mph - N/A   Overcast
10:00 PM 55.0 °F 54.0 °F 96% 30.34 in 10.0 mi WSW 4.6 mph - N/A   Overcast
10:16 PM 55.0 °F 54.0 °F 96% 30.34 in 10.0 mi WSW 4.6 mph - N/A   Overcast
10:53 PM 55.0 °F 54.0 °F 96% 30.34 in 10.0 mi SW 4.6 mph - N/A   Overcast
11:53 PM 55.0 °F 53.1 °F 93% 30.35 in 10.0 mi Calm Calm - N/A   Overcast